This is the latest recevied weather packets stored in our database for station/object S51UL-6. If no packets are shown the sender has not sent any weather packets the latest 10 day(s).
| Time | Temp. | Humidity | Pressure | Rain* | Wind** | Luminosity | Snow |
|---|---|---|---|---|---|---|---|
| 1787750591 | 32.22° C | 46% | 1018.1 hPa | 0 mm | - | - | - |
| 1787750292 | 32.22° C | 46% | 1018 hPa | 0 mm | - | - | - |
| 1787749991 | 32.22° C | 47% | 1018 hPa | 0 mm | - | - | - |
| 1787749692 | 32.22° C | 48% | 1018.2 hPa | 0 mm | - | - | - |
| 1787749392 | 32.22° C | 48% | 1018.2 hPa | 0 mm | - | - | - |
| 1787749092 | 32.22° C | 46% | 1018.2 hPa | 0 mm | - | - | - |
| 1787748792 | 31.67° C | 48% | 1018.3 hPa | 0 mm | - | - | - |
| 1787748492 | 31.67° C | 47% | 1018.1 hPa | 0 mm | - | - | - |
| 1787748192 | 31.67° C | 47% | 1018.1 hPa | 0 mm | - | - | - |
| 1787747892 | 31.67° C | 47% | 1018.1 hPa | 0 mm | - | - | - |
| 1787747592 | 31.67° C | 47% | 1018.1 hPa | 0 mm | - | - | - |
| 1787747292 | 32.22° C | 46% | 1018 hPa | 0 mm | - | - | - |
| 1787746992 | 32.22° C | 48% | 1018.2 hPa | 0 mm | - | - | - |
| 1787746692 | 32.22° C | 46% | 1018.2 hPa | 0 mm | - | - | - |
| 1787746093 | 32.78° C | 48% | 1018.2 hPa | 0 mm | - | - | - |
| 1787745492 | 33.33° C | 47% | 1018 hPa | 0 mm | - | - | - |
| 1787745193 | 32.78° C | 47% | 1017.9 hPa | 0 mm | - | - | - |
| 1787744893 | 33.33° C | 46% | 1018.1 hPa | 0 mm | - | - | - |
| 1787744592 | 33.89° C | 46% | 1018.1 hPa | 0 mm | - | - | - |
| 1787744293 | 33.89° C | 46% | 1018 hPa | 0 mm | - | - | - |
| 1787743992 | 33.89° C | 47% | 1018.1 hPa | 0 mm | - | - | - |
| 1787743694 | 33.33° C | 46% | 1018 hPa | 0 mm | - | - | - |
| 1787743393 | 34.44° C | 48% | 1018.1 hPa | 0 mm | - | - | - |
| 1787743255 | 34.44° C | 49% | 1018.1 hPa | 0 mm | - | - | - |
| 1787743093 | 34.44° C | 49% | 1018.1 hPa | 0 mm | - | - | - |
* Rain latest hour (hover to see other rain measurements)
** Current wind speed in m/s (hover to see current wind gust speed)